Location: *
(48.8667°N, 2.3331°E)
Time: 09:32:16
(UTC+00:00)

Cosmos 2061 Rocket - Pass Details

Date: 21 August 2020
Orbit: 966 x 1012 km, 82.9° (Epoch: 23 September)

Event Time Altitude Azimuth Distance (km) Brightness Sun altitude
Exits shadow 21:59:47 15° 218° (SW) 2,328 5.8 -24.4°
Maximum altitude 22:04:36 46° 287° (WNW) 1,284 4.9 -24.8°
Drops below altitude 10° 22:10:34 10° 360° (N) 2,726 7.1 -25.3°
Sets 22:13:14 0° 6° (N) 3,681 7.9 -25.5°
